,,10070,10270,13070,13570,15070,16070,
,, West, West, West, West, West, West,
,, SO2, H2S, ET, RH, WS, WD,
,, Ave, Ave, Ave, Ave, Ave, Ave,
,,,,,,,,
,,,,,,,,
,,BC,BC,BC,BC,BC,Raw,
1,2016/08/01 00:00:00,0.134,0.031,12.138,M,9.846,263.95,
2,2016/08/01 01:00:00,0.149,0.021,11.586,M,9.414,253.608,
3,2016/08/01 02:00:00,-0.031,0.126,11.178,M,8.107,249.69,
4,2016/08/01 03:00:00,0.31,0.066,11.054,M,8.04,248.209,
5,2016/08/01 04:00:00,0.396,0.164,11.653,M,7.996,235.154,
6,2016/08/01 05:00:00,0.282,0.302,11.759,M,11.199,238.259,
7,2016/08/01 06:00:00,0.291,0.109,11.945,M,17.874,270.534,
8,2016/08/01 07:00:00,0.104,0.176,12.425,M,19.754,262.96,
9,2016/08/01 08:00:00,0.158,0.219,12.998,M,21.82,264.513,
10,2016/08/01 09:00:00,0.155,0.257,13.51,M,22.703,268.769,
11,2016/08/01 10:00:00,0.128,0.145,14.333,M,24.147,264.345,
12,2016/08/01 11:00:00,0.107,0.039,15.844,M,26.996,265.984,
13,2016/08/01 12:00:00,0.027,0.012,17.714,M,26.129,273.287,
14,2016/08/01 13:00:00,-0.058,0.008,19.779,M,29.036,273.553,
15,2016/08/01 14:00:00,0.132,0.011,20.472,M,28.602,275.592,
16,2016/08/01 15:00:00,0.157,0.016,18.635,M,22.769,276.636,
17,2016/08/01 16:00:00,0.127,0.01,21.579,M,29.623,273.783,
18,2016/08/01 17:00:00,0.061,0.009,22.0,M,30.007,271.86,
19,2016/08/01 18:00:00,0.091,0.011,22.139,M,26.558,273.012,
20,2016/08/01 19:00:00,0.142,0.01,21.623,M,24.372,266.443,
21,2016/08/01 20:00:00,0.277,0.012,19.956,M,19.139,260.972,
22,2016/08/01 21:00:00,Z,Z,17.963,M,15.756,259.047,
23,2016/08/01 22:00:00,0.06,0.013,16.866,M,13.788,262.854,
24,2016/08/01 23:00:00,-0.058,0.012,16.115,M,15.901,261.483,
25,2016/08/02 00:00:00,0.141,0.009,15.627,M,15.142,259.04,
26,2016/08/02 01:00:00,0.285,0.012,15.388,M,16.557,269.189,
27,2016/08/02 02:00:00,0.422,0.024,14.505,M,15.424,269.872,
28,2016/08/02 03:00:00,0.256,0.067,13.844,M,13.722,271.506,
29,2016/08/02 04:00:00,0.131,0.095,13.177,M,12.0,255.566,
30,2016/08/02 05:00:00,0.08,0.212,12.689,M,13.221,256.757,
31,2016/08/02 06:00:00,-0.122,0.2,13.289,M,13.324,260.388,
32,2016/08/02 07:00:00,0.105,0.215,15.146,M,13.803,269.928,
33,2016/08/02 08:00:00,0.03,0.005,17.002,M,14.01,271.852,
34,2016/08/02 09:00:00,0.326,0.002,18.524,M,14.567,285.707,
35,2016/08/02 10:00:00,0.466,0.002,19.861,M,18.047,292.014,
36,2016/08/02 11:00:00,0.415,0.0,21.213,M,17.247,286.905,
37,2016/08/02 12:00:00,0.377,0.002,22.2,M,17.16,281.885,
38,2016/08/02 13:00:00,0.49,0.004,22.848,M,18.299,286.843,
39,2016/08/02 14:00:00,0.614,0.004,23.195,M,17.397,280.346,
40,2016/08/02 15:00:00,0.571,0.004,23.713,M,16.599,284.618,
41,2016/08/02 16:00:00,0.331,0.004,24.11,M,12.962,297.635,
42,2016/08/02 17:00:00,0.255,0.003,24.73,M,11.927,313.622,
43,2016/08/02 18:00:00,0.322,0.003,24.384,M,10.765,315.499,
44,2016/08/02 19:00:00,0.115,0.002,24.81,M,9.728,343.17,
45,2016/08/02 20:00:00,Z,Z,23.709,M,6.13,350.962,
46,2016/08/02 21:00:00,-0.021,0.005,20.283,M,5.5,348.579,
47,2016/08/02 22:00:00,0.112,0.007,18.11,M,3.998,339.281,
48,2016/08/02 23:00:00,0.096,0.008,16.688,M,3.237,341.621,
49,2016/08/03 00:00:00,0.139,0.012,15.344,M,2.071,342.86,
50,2016/08/03 01:00:00,0.176,0.03,15.306,M,3.8,348.54,
51,2016/08/03 02:00:00,0.013,0.017,15.38,M,4.66,345.527,
52,2016/08/03 03:00:00,0.126,0.018,14.938,M,5.276,0.232,
53,2016/08/03 04:00:00,0.198,0.617,13.293,M,1.989,54.591,
54,2016/08/03 05:00:00,0.257,0.589,13.326,M,0.854,327.668,
55,2016/08/03 06:00:00,0.305,0.6,14.067,M,4.0,330.411,
56,2016/08/03 07:00:00,0.384,0.523,14.51,M,8.707,342.219,
57,2016/08/03 08:00:00,0.146,0.373,14.437,M,9.057,350.87,
58,2016/08/03 09:00:00,0.206,0.282,15.145,M,8.448,356.395,
59,2016/08/03 10:00:00,0.217,0.018,17.587,M,7.81,40.636,
60,2016/08/03 11:00:00,0.282,0.002,19.223,M,10.625,31.989,
61,2016/08/03 12:00:00,0.38,0.004,19.869,M,11.042,21.603,
62,2016/08/03 13:00:00,0.067,0.002,20.601,M,16.403,11.781,
63,2016/08/03 14:00:00,0.219,0.004,20.82,M,15.149,3.671,
64,2016/08/03 15:00:00,0.0,0.004,21.588,M,12.409,15.072,
65,2016/08/03 16:00:00,0.095,0.004,22.193,M,13.484,12.185,
66,2016/08/03 17:00:00,0.141,0.004,23.029,M,14.623,16.292,
67,2016/08/03 18:00:00,0.136,0.006,22.871,M,8.743,53.719,
68,2016/08/03 19:00:00,Z,Z,22.581,M,5.152,40.421,
69,2016/08/03 20:00:00,0.163,0.005,20.469,M,3.672,6.853,
70,2016/08/03 21:00:00,0.147,0.008,17.82,M,5.638,323.831,
71,2016/08/03 22:00:00,0.223,0.005,15.818,M,10.468,328.504,
72,2016/08/03 23:00:00,0.092,0.007,14.97,M,5.894,335.294,
73,2016/08/04 00:00:00,0.098,0.008,14.155,M,2.656,290.547,
74,2016/08/04 01:00:00,0.19,0.065,14.266,M,5.684,262.595,
75,2016/08/04 02:00:00,0.09,0.192,14.244,M,5.66,267.981,
76,2016/08/04 03:00:00,0.231,0.006,14.569,M,8.674,263.801,
77,2016/08/04 04:00:00,0.276,0.02,14.436,M,9.497,264.028,
78,2016/08/04 05:00:00,0.199,0.307,14.469,M,8.374,276.872,
79,2016/08/04 06:00:00,0.246,0.346,14.566,M,4.449,265.279,
80,2016/08/04 07:00:00,0.346,0.11,16.161,M,5.974,252.351,
81,2016/08/04 08:00:00,0.15,0.115,16.006,M,8.578,265.333,
82,2016/08/04 09:00:00,0.273,0.015,17.263,M,6.75,265.606,
83,2016/08/04 10:00:00,0.409,0.087,19.072,M,13.176,323.856,
84,2016/08/04 11:00:00,0.34,0.003,20.169,M,14.076,356.927,
85,2016/08/04 12:00:00,0.282,0.003,20.247,M,7.945,29.279,
86,2016/08/04 13:00:00,0.221,0.004,19.225,M,1.165,123.508,
87,2016/08/04 14:00:00,0.213,0.005,19.346,M,1.286,230.771,
88,2016/08/04 15:00:00,0.159,0.005,20.775,M,2.563,337.286,
89,2016/08/04 16:00:00,0.138,0.003,22.226,M,3.639,291.796,
90,2016/08/04 17:00:00,0.167,0.002,22.222,M,9.044,308.328,
91,2016/08/04 18:00:00,Z,Z,21.227,M,7.608,325.686,
92,2016/08/04 19:00:00,0.065,0.003,21.615,M,8.409,331.702,
93,2016/08/04 20:00:00,0.015,0.004,19.895,M,3.949,328.241,
94,2016/08/04 21:00:00,0.158,0.039,16.603,M,3.696,308.633,
95,2016/08/04 22:00:00,0.274,0.357,15.182,M,3.569,313.672,
96,2016/08/04 23:00:00,0.273,0.543,13.615,M,3.476,277.139,
97,2016/08/05 00:00:00,0.185,0.08,13.126,M,0.913,276.096,
98,2016/08/05 01:00:00,0.19,0.153,12.292,M,1.388,321.28,
99,2016/08/05 02:00:00,0.159,0.09,11.827,M,0.202,264.181,
100,2016/08/05 03:00:00,0.01,0.039,11.37,M,1.684,95.46,
101,2016/08/05 04:00:00,0.184,0.544,11.279,M,0.954,62.411,
102,2016/08/05 05:00:00,0.156,0.508,10.581,M,0.354,186.67,
103,2016/08/05 06:00:00,0.208,0.256,11.862,M,1.025,185.54,
104,2016/08/05 07:00:00,0.116,1.13,15.407,M,3.486,70.07,
105,2016/08/05 08:00:00,0.559,1.115,17.518,M,2.791,90.232,
106,2016/08/05 09:00:00,0.727,0.18,19.231,M,8.952,93.56,
107,2016/08/05 10:00:00,0.416,0.011,20.878,M,9.039,87.959,
108,2016/08/05 11:00:00,0.316,0.01,22.231,M,8.707,88.315,
109,2016/08/05 12:00:00,0.171,0.01,22.997,M,6.469,85.506,
110,2016/08/05 13:00:00,0.118,0.01,23.29,M,5.968,55.296,
111,2016/08/05 14:00:00,0.131,0.011,23.702,M,6.815,56.983,
112,2016/08/05 15:00:00,0.143,0.01,24.347,M,7.104,76.533,
113,2016/08/05 16:00:00,0.237,0.011,24.429,M,9.748,90.782,
114,2016/08/05 17:00:00,Z,Z,24.782,M,11.732,108.95,
115,2016/08/05 18:00:00,4.659,0.026,24.312,M,11.672,112.913,
116,2016/08/05 19:00:00,6.434,0.015,23.35,M,10.479,129.553,
117,2016/08/05 20:00:00,0.446,0.011,20.208,M,9.092,137.761,
118,2016/08/05 21:00:00,0.188,0.013,16.071,M,6.289,142.782,
119,2016/08/05 22:00:00,0.076,0.013,14.579,M,6.14,136.911,
120,2016/08/05 23:00:00,0.012,0.013,14.325,M,3.15,119.878,
121,2016/08/06 00:00:00,0.091,0.016,13.684,M,3.342,113.968,
122,2016/08/06 01:00:00,0.21,0.903,13.466,M,2.363,55.037,
123,2016/08/06 02:00:00,0.218,1.587,12.807,M,3.087,83.29,
124,2016/08/06 03:00:00,0.205,3.55,11.649,M,3.674,120.593,
125,2016/08/06 04:00:00,0.225,3.4,11.319,M,1.84,123.02,
126,2016/08/06 05:00:00,0.142,0.094,10.698,M,3.387,157.065,
127,2016/08/06 06:00:00,-0.04,0.803,12.401,M,3.473,98.217,
128,2016/08/06 07:00:00,0.007,2.176,14.955,M,3.281,70.752,
129,2016/08/06 08:00:00,0.274,2.691,17.65,M,4.853,90.346,
130,2016/08/06 09:00:00,2.413,1.791,19.792,M,7.532,89.651,
131,2016/08/06 10:00:00,4.969,0.181,21.921,M,12.011,108.332,
132,2016/08/06 11:00:00,3.237,0.009,23.244,M,14.809,119.477,
133,2016/08/06 12:00:00,2.426,0.039,23.877,M,15.588,105.71,
134,2016/08/06 13:00:00,2.119,0.027,24.322,M,15.232,98.829,
135,2016/08/06 14:00:00,1.698,0.009,24.841,M,14.278,94.764,
136,2016/08/06 15:00:00,1.958,0.011,25.141,M,13.285,91.735,
137,2016/08/06 16:00:00,Z,Z,25.459,M,12.441,86.071,
138,2016/08/06 17:00:00,0.72,0.014,24.612,M,11.613,89.342,
139,2016/08/06 18:00:00,1.913,0.114,25.639,M,10.046,113.033,
140,2016/08/06 19:00:00,2.606,0.2,24.336,M,8.399,115.473,
141,2016/08/06 20:00:00,0.836,0.012,21.082,M,7.907,130.652,
142,2016/08/06 21:00:00,0.497,0.013,17.85,M,6.408,147.484,
143,2016/08/06 22:00:00,0.498,0.011,17.047,M,2.726,127.997,
144,2016/08/06 23:00:00,0.373,0.012,16.364,M,3.316,110.598,
145,2016/08/07 00:00:00,0.304,0.177,15.534,M,2.289,77.125,
146,2016/08/07 01:00:00,0.223,0.729,14.463,M,2.483,76.919,
147,2016/08/07 02:00:00,0.234,0.91,13.351,M,1.919,127.862,
148,2016/08/07 03:00:00,0.13,0.064,12.654,M,2.152,145.207,
149,2016/08/07 04:00:00,0.309,0.011,12.616,M,1.748,129.144,
150,2016/08/07 05:00:00,0.337,1.674,12.433,M,2.009,42.397,
151,2016/08/07 06:00:00,0.242,1.463,12.814,M,1.237,209.766,
152,2016/08/07 07:00:00,0.171,0.871,16.549,M,2.349,157.77,
153,2016/08/07 08:00:00,0.368,1.203,19.123,M,3.233,66.309,
154,2016/08/07 09:00:00,0.776,2.12,20.386,M,5.042,91.796,
155,2016/08/07 10:00:00,3.174,0.722,20.841,M,6.885,82.989,
156,2016/08/07 11:00:00,1.032,0.011,21.995,M,10.387,84.287,
157,2016/08/07 12:00:00,0.741,0.027,22.342,M,10.06,97.536,
158,2016/08/07 13:00:00,2.67,0.232,22.461,M,8.76,100.482,
159,2016/08/07 14:00:00,2.307,0.012,23.082,M,10.718,125.57,
160,2016/08/07 15:00:00,Z,Z,21.489,M,13.517,138.186,
161,2016/08/07 16:00:00,0.817,0.01,21.671,M,11.485,140.211,
162,2016/08/07 17:00:00,0.552,0.021,21.072,M,10.602,130.049,
163,2016/08/07 18:00:00,1.749,0.173,20.429,M,6.864,111.168,
164,2016/08/07 19:00:00,0.749,0.009,19.197,M,10.984,136.857,
165,2016/08/07 20:00:00,0.567,0.008,17.375,M,9.431,143.274,
166,2016/08/07 21:00:00,0.589,0.282,16.467,M,7.34,110.633,
167,2016/08/07 22:00:00,1.153,1.712,15.901,M,9.544,94.601,
168,2016/08/07 23:00:00,0.71,0.009,15.02,M,8.513,85.644,
169,2016/08/08 00:00:00,0.428,0.009,14.214,M,8.508,74.413,
170,2016/08/08 01:00:00,0.614,0.01,14.335,M,8.004,54.067,
171,2016/08/08 02:00:00,0.623,0.732,14.247,M,5.23,2.335,
172,2016/08/08 03:00:00,0.303,1.225,14.32,M,5.744,359.474,
173,2016/08/08 04:00:00,0.407,2.258,14.447,M,8.707,3.659,
174,2016/08/08 05:00:00,0.457,0.093,13.869,M,7.289,334.618,
175,2016/08/08 06:00:00,0.25,0.16,13.77,M,9.747,327.1,
176,2016/08/08 07:00:00,0.147,0.28,14.187,M,11.389,332.125,
177,2016/08/08 08:00:00,0.275,0.281,15.324,M,12.233,334.851,
178,2016/08/08 09:00:00,0.317,0.262,15.968,M,12.008,342.825,
179,2016/08/08 10:00:00,0.466,0.154,16.58,M,11.6,339.627,
180,2016/08/08 11:00:00,0.35,0.003,18.343,M,11.84,345.524,
181,2016/08/08 12:00:00,0.49,0.003,20.23,M,12.841,358.422,
182,2016/08/08 13:00:00,0.374,0.002,21.236,M,11.466,5.664,
183,2016/08/08 14:00:00,Z,Z,22.369,M,9.868,23.211,
184,2016/08/08 15:00:00,0.401,0.005,22.807,M,8.742,48.924,
185,2016/08/08 16:00:00,0.403,0.003,23.579,M,6.665,359.418,
186,2016/08/08 17:00:00,0.502,0.002,22.247,M,12.627,336.101,
187,2016/08/08 18:00:00,0.236,0.003,19.302,M,12.202,341.171,
188,2016/08/08 19:00:00,0.12,0.005,18.877,M,8.332,332.801,
189,2016/08/08 20:00:00,0.211,0.006,18.174,M,6.446,332.037,
190,2016/08/08 21:00:00,0.482,0.01,17.25,M,5.733,318.984,
191,2016/08/08 22:00:00,0.161,0.012,16.929,M,6.54,299.348,
192,2016/08/08 23:00:00,0.332,0.908,17.284,M,3.65,323.209,
193,2016/08/09 00:00:00,0.191,0.007,16.989,M,3.871,333.947,
194,2016/08/09 01:00:00,0.392,0.027,14.826,M,2.588,233.255,
195,2016/08/09 02:00:00,0.258,0.215,15.051,M,2.857,220.269,
196,2016/08/09 03:00:00,0.432,0.255,15.057,M,2.038,187.171,
197,2016/08/09 04:00:00,0.369,0.316,14.976,M,3.481,168.713,
198,2016/08/09 05:00:00,0.32,0.822,15.369,M,2.126,108.138,
199,2016/08/09 06:00:00,0.483,3.133,15.299,M,2.721,33.463,
200,2016/08/09 07:00:00,0.309,2.318,16.117,M,5.814,34.556,
201,2016/08/09 08:00:00,0.262,0.681,16.477,M,5.64,16.031,
202,2016/08/09 09:00:00,0.235,0.443,16.617,M,6.303,32.877,
203,2016/08/09 10:00:00,0.477,0.007,19.743,M,10.195,61.47,
204,2016/08/09 11:00:00,0.545,0.01,21.253,M,11.341,83.073,
205,2016/08/09 12:00:00,0.738,0.161,22.242,M,13.071,95.878,
206,2016/08/09 13:00:00,Z,Z,22.234,M,13.284,78.111,
207,2016/08/09 14:00:00,2.957,0.013,23.714,M,13.773,111.918,
208,2016/08/09 15:00:00,1.966,0.132,23.096,M,16.192,89.381,
209,2016/08/09 16:00:00,3.385,0.317,22.999,M,18.891,108.408,
210,2016/08/09 17:00:00,4.769,2.439,22.482,M,18.444,104.636,
211,2016/08/09 18:00:00,2.29,0.178,22.019,M,26.502,116.997,
212,2016/08/09 19:00:00,2.856,0.474,19.017,M,15.712,102.249,
213,2016/08/09 20:00:00,1.091,0.007,14.572,M,11.124,330.575,
214,2016/08/09 21:00:00,0.48,0.005,13.81,M,19.336,128.882,
215,2016/08/09 22:00:00,0.677,2.658,13.711,M,17.002,109.022,
216,2016/08/09 23:00:00,1.894,5.621,13.445,M,12.228,108.396,
217,2016/08/10 00:00:00,1.104,0.454,13.395,M,12.85,120.29,
218,2016/08/10 01:00:00,0.84,0.026,13.689,M,14.487,127.84,
219,2016/08/10 02:00:00,0.458,0.004,13.654,M,9.007,173.739,
220,2016/08/10 03:00:00,0.358,0.005,13.248,M,8.569,142.188,
221,2016/08/10 04:00:00,0.3,1.263,13.11,M,13.549,98.269,
222,2016/08/10 05:00:00,1.059,3.184,13.014,M,12.507,104.427,
223,2016/08/10 06:00:00,0.685,0.278,13.702,M,5.7,141.656,
224,2016/08/10 07:00:00,0.415,0.056,14.4,M,4.107,172.662,
225,2016/08/10 08:00:00,0.103,0.068,15.543,M,6.048,178.158,
226,2016/08/10 09:00:00,0.248,0.032,16.889,M,7.697,163.724,
227,2016/08/10 10:00:00,0.211,0.024,17.851,M,7.856,147.453,
228,2016/08/10 11:00:00,0.279,0.013,19.16,M,5.802,141.221,
229,2016/08/10 12:00:00,Z,Z,20.036,M,8.572,126.387,
230,2016/08/10 13:00:00,0.23,0.006,20.325,M,13.277,140.147,
231,2016/08/10 14:00:00,0.39,0.007,19.94,M,11.52,131.635,
232,2016/08/10 15:00:00,0.438,0.031,19.703,M,8.265,90.191,
233,2016/08/10 16:00:00,0.414,0.006,19.855,M,12.246,85.428,
234,2016/08/10 17:00:00,0.13,0.01,20.148,M,11.604,73.696,
235,2016/08/10 18:00:00,0.295,0.008,19.929,M,9.615,66.439,
236,2016/08/10 19:00:00,0.288,0.011,19.602,M,8.177,42.187,
237,2016/08/10 20:00:00,0.11,0.074,18.979,M,7.037,15.822,
238,2016/08/10 21:00:00,0.269,0.022,17.915,M,8.414,15.204,
239,2016/08/10 22:00:00,-0.004,1.207,16.628,M,5.148,59.181,
240,2016/08/10 23:00:00,0.095,0.019,16.002,M,6.264,71.523,
241,2016/08/11 00:00:00,0.041,0.013,15.64,M,4.916,6.613,
242,2016/08/11 01:00:00,0.038,0.012,14.958,M,7.294,338.989,
243,2016/08/11 02:00:00,0.196,0.129,14.439,M,4.571,347.535,
244,2016/08/11 03:00:00,0.147,0.71,14.114,M,5.149,311.801,
245,2016/08/11 04:00:00,1.098,1.129,14.252,M,4.118,303.419,
246,2016/08/11 05:00:00,0.948,0.876,14.377,M,4.267,292.08,
247,2016/08/11 06:00:00,0.558,0.591,14.405,M,4.565,289.812,
248,2016/08/11 07:00:00,0.607,1.08,14.634,M,3.491,279.055,
249,2016/08/11 08:00:00,0.291,0.212,15.694,M,6.089,263.586,
250,2016/08/11 09:00:00,-0.08,0.475,18.555,M,5.254,275.399,
251,2016/08/11 10:00:00,0.018,0.011,19.979,M,7.776,270.009,
252,2016/08/11 11:00:00,Z,Z,21.127,M,7.523,275.762,
253,2016/08/11 12:00:00,-0.006,0.011,17.945,M,4.85,254.875,
254,2016/08/11 13:00:00,-0.083,0.011,20.307,M,10.89,282.118,
255,2016/08/11 14:00:00,0.019,0.012,21.34,M,9.623,278.961,
256,2016/08/11 15:00:00,-0.007,0.03,18.199,M,7.712,303.501,
257,2016/08/11 16:00:00,0.084,0.34,18.609,M,2.68,276.406,
258,2016/08/11 17:00:00,0.363,0.054,21.346,M,3.049,61.26,
259,2016/08/11 18:00:00,0.2,0.368,20.697,M,2.447,127.502,
260,2016/08/11 19:00:00,0.171,0.219,18.431,M,11.868,292.056,
261,2016/08/11 20:00:00,1.048,0.043,18.517,M,10.192,306.781,
262,2016/08/11 21:00:00,0.921,0.104,16.659,M,7.091,300.61,
263,2016/08/11 22:00:00,0.584,0.134,15.702,M,7.853,271.625,
264,2016/08/11 23:00:00,0.649,0.013,15.899,M,12.794,278.983,
265,2016/08/12 00:00:00,0.288,0.013,15.234,M,16.077,273.475,
266,2016/08/12 01:00:00,0.113,0.012,14.415,M,15.309,275.132,
267,2016/08/12 02:00:00,0.275,0.013,14.232,M,15.4,281.324,
268,2016/08/12 03:00:00,0.498,0.027,13.858,M,15.917,281.455,
269,2016/08/12 04:00:00,0.867,0.066,13.646,M,16.264,283.289,
270,2016/08/12 05:00:00,0.176,0.016,13.84,M,16.94,291.167,
271,2016/08/12 06:00:00,0.484,0.817,13.68,M,17.754,296.494,
272,2016/08/12 07:00:00,0.74,0.153,14.371,M,17.273,290.084,
273,2016/08/12 08:00:00,1.1,1.288,15.755,M,16.588,301.76,
274,2016/08/12 09:00:00,1.124,0.364,17.449,M,13.791,293.768,
275,2016/08/12 10:00:00,Z,Z,19.055,M,13.916,290.838,
276,2016/08/12 11:00:00,0.456,0.009,20.488,M,17.172,285.19,
277,2016/08/12 12:00:00,0.164,0.008,21.565,M,18.751,295.387,
278,2016/08/12 13:00:00,0.378,0.031,22.55,M,21.022,305.007,
279,2016/08/12 14:00:00,0.661,0.01,22.717,M,21.103,312.019,
280,2016/08/12 15:00:00,0.427,0.011,22.617,M,18.822,311.85,
281,2016/08/12 16:00:00,0.265,0.01,22.993,M,20.479,313.359,
282,2016/08/12 17:00:00,0.251,0.008,23.417,M,21.08,315.228,
283,2016/08/12 18:00:00,0.658,0.009,23.115,M,20.047,308.662,
284,2016/08/12 19:00:00,4.763,0.008,22.214,M,16.127,305.635,
285,2016/08/12 20:00:00,7.349,0.308,20.604,M,12.509,300.115,
286,2016/08/12 21:00:00,1.334,0.025,18.328,M,10.086,281.724,
287,2016/08/12 22:00:00,0.739,0.011,16.989,M,11.028,273.573,
288,2016/08/12 23:00:00,1.083,0.01,16.533,M,10.463,276.034,
289,2016/08/13 00:00:00,0.762,0.01,15.622,M,9.432,270.645,
290,2016/08/13 01:00:00,0.336,0.011,14.991,M,11.007,263.573,
291,2016/08/13 02:00:00,0.345,0.011,14.55,M,12.327,264.58,
292,2016/08/13 03:00:00,0.198,0.011,14.516,M,12.653,262.813,
293,2016/08/13 04:00:00,0.198,0.011,14.686,M,12.657,262.343,
294,2016/08/13 05:00:00,0.139,0.01,14.613,M,12.688,261.298,
295,2016/08/13 06:00:00,0.235,0.026,14.313,M,10.95,267.162,
296,2016/08/13 07:00:00,0.089,0.197,15.81,M,10.847,263.173,
297,2016/08/13 08:00:00,0.233,0.019,16.715,M,8.609,265.918,
298,2016/08/13 09:00:00,Z,Z,18.733,M,10.409,256.647,
299,2016/08/13 10:00:00,0.3,0.009,21.278,M,9.192,250.858,
300,2016/08/13 11:00:00,0.349,0.008,23.104,M,9.834,247.946,
301,2016/08/13 12:00:00,0.963,0.009,24.145,M,8.075,240.301,
302,2016/08/13 13:00:00,1.581,0.009,25.049,M,8.065,245.669,
303,2016/08/13 14:00:00,1.351,0.009,25.458,M,10.055,253.985,
304,2016/08/13 15:00:00,0.927,0.009,25.916,M,10.267,253.725,
305,2016/08/13 16:00:00,0.85,0.008,25.723,M,9.852,294.547,
306,2016/08/13 17:00:00,0.865,0.007,25.423,M,6.435,328.263,
307,2016/08/13 18:00:00,1.505,0.006,26.504,M,6.628,307.646,
308,2016/08/13 19:00:00,1.207,0.005,25.844,M,5.378,279.299,
309,2016/08/13 20:00:00,-0.019,0.007,22.442,M,5.275,212.911,
310,2016/08/13 21:00:00,0.5,0.007,21.176,M,3.133,334.362,
311,2016/08/13 22:00:00,0.466,0.006,19.047,M,3.781,172.713,
312,2016/08/13 23:00:00,0.326,0.007,17.231,M,9.008,355.037,
313,2016/08/14 00:00:00,0.575,0.665,14.033,M,10.894,133.537,
314,2016/08/14 01:00:00,0.383,0.005,13.363,M,6.559,182.724,
315,2016/08/14 02:00:00,0.408,0.013,13.975,M,3.208,181.903,
316,2016/08/14 03:00:00,0.412,0.31,13.485,M,3.556,124.45,
317,2016/08/14 04:00:00,0.249,0.357,13.532,M,5.359,192.285,
318,2016/08/14 05:00:00,0.261,0.045,13.709,M,8.484,179.665,
319,2016/08/14 06:00:00,0.251,0.051,14.031,M,5.598,196.626,
320,2016/08/14 07:00:00,0.301,0.161,16.455,M,5.045,176.266,
321,2016/08/14 08:00:00,Z,Z,18.107,M,4.644,233.472,
322,2016/08/14 09:00:00,0.413,0.128,19.503,M,4.851,262.651,
323,2016/08/14 10:00:00,0.568,0.027,21.518,M,2.759,209.246,
324,2016/08/14 11:00:00,0.646,0.005,22.898,M,5.794,258.903,
325,2016/08/14 12:00:00,0.595,0.002,24.162,M,5.835,248.257,
326,2016/08/14 13:00:00,0.875,0.005,25.319,M,9.816,248.797,
327,2016/08/14 14:00:00,0.943,0.003,25.992,M,11.411,255.555,
328,2016/08/14 15:00:00,0.411,0.003,26.597,M,11.873,266.985,
329,2016/08/14 16:00:00,0.392,0.003,26.843,M,14.152,271.149,
330,2016/08/14 17:00:00,0.399,0.002,27.251,M,15.857,262.839,
331,2016/08/14 18:00:00,0.542,0.004,25.465,M,11.018,303.721,
332,2016/08/14 19:00:00,0.738,0.004,24.195,M,9.468,311.296,
333,2016/08/14 20:00:00,0.486,0.005,19.725,M,22.544,328.177,
334,2016/08/14 21:00:00,0.393,0.005,17.229,M,11.025,349.748,
335,2016/08/14 22:00:00,0.439,0.007,16.942,M,7.218,333.708,
336,2016/08/14 23:00:00,0.341,0.057,15.346,M,2.226,245.726,
337,2016/08/15 00:00:00,0.376,0.006,15.094,M,0.965,260.2,
338,2016/08/15 01:00:00,0.414,0.007,14.394,M,3.422,226.38,
339,2016/08/15 02:00:00,0.249,0.006,14.073,M,7.456,241.925,
340,2016/08/15 03:00:00,0.223,0.017,14.081,M,9.477,258.154,
341,2016/08/15 04:00:00,0.195,0.297,14.045,M,12.313,263.06,
342,2016/08/15 05:00:00,0.192,0.297,14.068,M,12.137,273.279,
343,2016/08/15 06:00:00,0.099,0.747,14.247,M,10.791,278.905,
344,2016/08/15 07:00:00,Z,Z,14.949,M,10.165,281.024,
345,2016/08/15 08:00:00,0.304,0.396,17.614,M,6.688,261.5,
346,2016/08/15 09:00:00,0.327,0.08,19.086,M,7.599,258.132,
347,2016/08/15 10:00:00,-0.319,0.002,20.725,M,6.461,233.484,
348,2016/08/15 11:00:00,0.355,0.002,23.054,M,5.928,235.937,
349,2016/08/15 12:00:00,0.713,0.003,23.876,M,11.406,263.258,
350,2016/08/15 13:00:00,0.541,0.002,24.669,M,12.197,281.051,
351,2016/08/15 14:00:00,0.342,0.004,24.765,M,13.046,307.972,
352,2016/08/15 15:00:00,0.563,0.003,25.764,M,14.229,290.933,
353,2016/08/15 16:00:00,0.307,0.005,26.212,M,14.321,277.609,
354,2016/08/15 17:00:00,0.317,0.003,26.462,M,14.113,287.552,
355,2016/08/15 18:00:00,0.393,0.003,25.906,M,12.482,315.344,
356,2016/08/15 19:00:00,0.632,0.003,24.799,M,8.886,291.423,
357,2016/08/15 20:00:00,0.452,0.005,22.357,M,5.602,280.544,
358,2016/08/15 21:00:00,0.296,0.004,19.687,M,5.775,246.314,
359,2016/08/15 22:00:00,0.423,0.005,18.008,M,5.128,248.203,
360,2016/08/15 23:00:00,0.415,0.006,17.191,M,6.586,244.47,
361,2016/08/16 00:00:00,0.401,0.005,18.129,M,7.926,239.076,
362,2016/08/16 01:00:00,0.338,0.006,17.274,M,6.898,225.219,
363,2016/08/16 02:00:00,0.39,0.006,16.948,M,7.242,233.787,
364,2016/08/16 03:00:00,0.439,0.014,16.358,M,6.961,230.586,
365,2016/08/16 04:00:00,0.358,0.308,15.606,M,7.58,229.124,
366,2016/08/16 05:00:00,0.372,0.417,15.748,M,8.103,239.238,
367,2016/08/16 06:00:00,Z,Z,16.306,M,7.445,240.048,
368,2016/08/16 07:00:00,0.317,0.409,18.257,M,6.183,234.334,
369,2016/08/16 08:00:00,0.291,0.179,20.621,M,6.114,219.664,
370,2016/08/16 09:00:00,0.37,0.003,22.383,M,6.829,225.918,
371,2016/08/16 10:00:00,0.248,0.003,24.469,M,7.649,225.123,
372,2016/08/16 11:00:00,0.433,0.004,25.905,M,8.252,219.464,
373,2016/08/16 12:00:00,0.591,0.003,27.195,M,7.324,215.996,
374,2016/08/16 13:00:00,0.585,0.004,27.805,M,6.514,197.679,
375,2016/08/16 14:00:00,0.598,0.003,28.563,M,7.685,197.432,
376,2016/08/16 15:00:00,0.562,0.002,29.251,M,8.987,174.0,
377,2016/08/16 16:00:00,0.583,0.001,29.507,M,8.808,180.775,
378,2016/08/16 17:00:00,0.575,0.0,30.071,M,7.905,192.29,
379,2016/08/16 18:00:00,0.582,0.001,27.68,M,6.336,186.887,
380,2016/08/16 19:00:00,0.615,0.004,24.704,M,3.175,217.006,
381,2016/08/16 20:00:00,0.476,0.033,19.126,M,23.719,318.345,
382,2016/08/16 21:00:00,0.44,0.006,16.803,M,11.907,8.872,
383,2016/08/16 22:00:00,0.325,0.006,16.312,M,4.758,297.744,
384,2016/08/16 23:00:00,0.281,0.006,16.109,M,1.841,341.017,
385,2016/08/17 00:00:00,0.417,0.326,15.396,M,7.646,289.595,
386,2016/08/17 01:00:00,0.455,0.009,14.293,M,4.703,262.991,
387,2016/08/17 02:00:00,0.282,0.103,14.802,M,9.031,279.259,
388,2016/08/17 03:00:00,0.791,0.68,15.072,M,8.957,299.987,
389,2016/08/17 04:00:00,0.868,0.036,14.419,M,9.833,282.512,
390,2016/08/17 05:00:00,Z,Z,13.83,M,11.064,278.974,
391,2016/08/17 06:00:00,0.651,0.425,14.191,M,13.302,293.504,
392,2016/08/17 07:00:00,1.524,0.929,15.278,M,14.387,300.557,
393,2016/08/17 08:00:00,1.841,0.28,16.164,M,13.782,300.841,
394,2016/08/17 09:00:00,0.967,0.011,17.125,M,14.233,284.332,
395,2016/08/17 10:00:00,0.65,0.01,17.992,M,14.661,280.417,
396,2016/08/17 11:00:00,0.565,0.01,19.326,M,15.307,280.873,